Location: Zilina
(0.0000°N, 18.7333°E)
Time: 18:05:07
(UTC+02:00)

Cosmos 2154 Rocket - Pass Details

Date: 19 February 2019
Orbit: 965 x 997 km, 82.9° (Epoch: 14 October)

Event Time Altitude Azimuth Distance (km) Brightness Sun altitude
Rises 19:32:13 0° 5° (N) 3,699 6.9 -22.9°
Reaches altitude 10° 19:34:47 10° 9° (N) 2,753 6.2 -23.5°
Maximum altitude 19:40:59 59° 87° (E) 1,140 4.0 -25.0°
Drops below altitude 10° 19:47:12 10° 165° (SSE) 2,759 6.3 -26.5°
Sets 19:49:46 0° 169° (S) 3,707 7.1 -27.1°
